Location: Unspecified
(0.0000°N, 0.0000°E)
Time: 15:10:12
(UTC+00:00)

Altair - Pass Details

Date: 01 November 2021
Orbit: 1502 x 1682 km, 47.2° (Epoch: 26 November)

Event Time Altitude Azimuth Distance (km) Brightness Sun altitude
Rises 12:01:13 0° 269° (W) 4,919 10.2 74.8°
Reaches altitude 10° 12:09:02 10° 231° (SW) 3,943 10.0 74.1°
Maximum altitude 12:10:25 10° 223° (SW) 3,916 10.0 74.0°
Drops below altitude 10° 12:11:48 10° 215° (SW) 3,941 10.0 73.8°
Sets 12:19:43 0° 177° (S) 4,908 10.3 72.9°
